Location: Huntsville
(41.2590°N, 111.7678°W)
Time: 07:39:49
(UTC+00:00)

Tiros 1 despin weight - Visible Passes

Search period start: 25 September 2022 00:00
Search period end: 05 October 2022 00:00
Orbit: 590 x 639 km, 48.2° (Epoch: 23 September)

Date Brightness Start Highest point End Pass type
(mag) Time Alt. Az. Time Alt. Az. Time Alt. Az.
25 Sep ? 02:03:20 10° SW 02:07:45 52° SE 02:12:08 11° ENE visible
25 Sep ? 03:44:52 10° W 03:49:08 48° NNW 03:49:08 48° NNW visible
26 Sep ? 02:18:33 10° WSW 02:23:06 89° SSE 02:27:03 14° ENE visible
26 Sep ? 04:00:40 10° W 04:04:03 34° NW 04:04:03 34° NW visible
27 Sep ? 02:34:04 10° WSW 02:38:34 60° NNW 02:41:52 18° NE visible
27 Sep ? 04:16:26 10° WNW 04:18:51 25° NW 04:18:51 25° NW visible
28 Sep ? 02:49:47 10° W 02:54:09 43° NNW 02:56:36 23° NE visible
28 Sep ? 04:32:07 10° WNW 04:33:34 18° NW 04:33:34 18° NW visible
29 Sep ? 03:05:34 10° WNW 03:09:49 36° N 03:11:16 29° NNE visible
29 Sep ? 04:47:39 10° WNW 04:48:14 13° NW 04:48:14 13° NW visible
30 Sep ? 01:38:56 10° W 01:43:22 53° NNW 01:47:53 10° ENE visible
30 Sep ? 03:21:19 10° WNW 03:25:29 34° N 03:25:53 33° NNE visible
01 Oct ? 01:54:40 10° W 01:58:57 40° NNW 02:03:19 10° ENE visible
01 Oct ? 03:36:56 10° WNW 03:40:29 34° NNW 03:40:29 34° NNW visible
02 Oct ? 02:10:27 10° WNW 02:14:37 35° N 02:18:06 14° ENE visible
02 Oct ? 03:52:25 10° WNW 03:55:05 30° NW 03:55:05 30° NW visible
03 Oct ? 02:26:08 10° WNW 02:30:18 34° N 02:32:42 21° NE visible
03 Oct ? 04:07:49 10° WNW 04:09:40 23° NW 04:09:40 23° NW visible
04 Oct ? 02:41:42 10° WNW 02:45:59 38° N 02:47:17 31° NE visible
04 Oct ? 04:23:12 10° WNW 04:24:16 17° WNW 04:24:16 17° WNW visible
